Weather History for KTYS - October, 2011

Change the Weather History Date:

Saturday, October 22, 2011

  Actual Average Record
Temperature  
Mean Temperature 50 °F 58 °F  
Max Temperature 64 °F 69 °F 86 °F (1947)
Min Temperature 36 °F 46 °F 25 °F (1987)
Degree Days  
Heating Degree Days 15 8  
Month to date heating degree days 118 112  
Since 1 July heating degree days 129 135  
Cooling Degree Days 0 1  
Month to date cooling degree days 15 33  
Year to date cooling degree days 1864 1520  
Moisture  
Dew Point 37 °F    
Average Humidity 63    
Maximum Humidity 92    
Minimum Humidity 34    
Precipitation  
Precipitation 0.00 in 0.08 in 1.81 in (1945)
Month to date precipitation 3.08 1.72  
Year to date precipitation 42.97 38.56  
Snow  
Snow 0.00 in 0.00 in - ()
Month to date snowfall 0.0 0.0  
Since 1 July snowfall 0.0 0.0  
Since 1 September snowfall 0.0 0.0  
Snow Depth 0.00 in    
Sea Level Pressure  
Sea Level Pressure 30.15 in    
Wind  
Wind Speed 1 mph (West)    
Max Wind Speed 8 mph    
Max Gust Speed 10 mph    
Visibility 8 miles    
Events      
T = Trace of Precipitation, MM = Missing Value Source: NWS Daily Summary

Daily Weather History Graph

Daily Weather History Graph

Search for Another Location

Airport or City:

Trip Planner

Search our weather history database for the weather conditions in past years. The results will help you decide how hot, cold, wet, or windy it might be!

Date:

Astronomy

Oct. 22, 2011 Rise Set
Actual Time 7:48 AM EDT 6:51 PM EDT
Civil Twilight 7:22 AM EDT 7:17 PM EDT
Nautical Twilight 6:52 AM EDT 7:47 PM EDT
Astronomical Twilight 6:23 AM EDT 8:17 PM EDT
Moon 2:54 AM EDT (10/22) 4:01 PM EDT (10/22)
Length of Visible Light 11h 55m
Length of Day
11h 03m
Waning Crescent, 24% of the Moon is Illuminated
Oct 22
Waning Crescent
Oct 26
New
Nov 2
First Quarter
Nov 10
Full
Nov 18
Last Quarter

Hourly Weather History & Observations

Time (EDT) Temp. Dew Point Humidity Pressure Visibility Wind Dir Wind Speed Gust Speed Precip Events Conditions
12:53 AM 44.1 °F 39.0 °F 82% 30.14 in 10.0 mi Calm Calm - N/A   Clear
1:53 AM 42.1 °F 37.9 °F 85% 30.14 in 10.0 mi Calm Calm - N/A   Clear
2:53 AM 39.9 °F 37.9 °F 93% 30.14 in 10.0 mi Calm Calm - N/A   Clear
3:53 AM 39.9 °F 37.9 °F 93% 30.14 in 10.0 mi Calm Calm - N/A   Clear
4:53 AM 39.9 °F 37.9 °F 93% 30.14 in 10.0 mi Calm Calm - N/A   Clear
5:53 AM 37.0 °F 35.1 °F 93% 30.17 in 5.0 mi Calm Calm - N/A   Scattered Clouds
6:02 AM 35.6 °F 35.6 °F 100% 30.17 in 2.5 mi Calm Calm - N/A   Mostly Cloudy
6:05 AM 35.6 °F 35.6 °F 100% 30.17 in 1.2 mi Calm Calm - N/A   Mostly Cloudy
6:07 AM 35.6 °F 35.6 °F 100% 30.17 in 0.8 mi Calm Calm - N/A   Mist
6:11 AM 35.6 °F 35.6 °F 100% 30.17 in 1.0 mi Calm Calm - N/A   Mostly Cloudy
6:23 AM 35.6 °F 35.6 °F 100% 30.17 in 2.5 mi Calm Calm - N/A   Mostly Cloudy
6:26 AM 37.4 °F 35.6 °F 93% 30.17 in 5.0 mi Calm Calm - N/A   Partly Cloudy
6:40 AM 37.4 °F 35.6 °F 93% 30.17 in 2.0 mi Calm Calm - N/A   Partly Cloudy
6:53 AM 37.0 °F 36.0 °F 96% 30.18 in 4.0 mi Calm Calm - N/A   Partly Cloudy
7:53 AM 37.0 °F 35.1 °F 93% 30.19 in 7.0 mi Calm Calm - N/A   Clear
8:53 AM 37.0 °F 36.0 °F 96% 30.21 in 8.0 mi Calm Calm - N/A   Clear
9:45 AM 42.8 °F 39.2 °F 87% 30.21 in 10.0 mi Calm Calm - N/A   Partly Cloudy
9:53 AM 44.1 °F 41.0 °F 89% 30.21 in 10.0 mi Calm Calm - N/A   Partly Cloudy
10:53 AM 48.0 °F 41.0 °F 77% 30.20 in 10.0 mi Calm Calm - N/A   Partly Cloudy
11:53 AM 53.1 °F 42.1 °F 66% 30.19 in 10.0 mi Calm Calm - N/A   Clear
12:53 PM 57.9 °F 39.9 °F 51% 30.15 in 10.0 mi Calm Calm - N/A   Clear
1:53 PM 59.0 °F 37.0 °F 44% 30.13 in 10.0 mi SW 3.5 mph - N/A   Clear
2:53 PM 62.1 °F 37.0 °F 39% 30.11 in 10.0 mi NNW 4.6 mph - N/A   Clear
3:53 PM 63.0 °F 36.0 °F 37% 30.11 in 10.0 mi Calm Calm - N/A   Partly Cloudy
4:53 PM 63.0 °F 33.1 °F 33% 30.10 in 10.0 mi West 4.6 mph - N/A   Clear
5:53 PM 62.1 °F 33.1 °F 34% 30.10 in 10.0 mi WSW 3.5 mph - N/A   Clear
6:53 PM 59.0 °F 32.0 °F 36% 30.10 in 10.0 mi Calm Calm - N/A   Clear
7:53 PM 54.0 °F 36.0 °F 51% 30.10 in 10.0 mi Calm Calm - N/A   Clear
8:53 PM 52.0 °F 36.0 °F 54% 30.11 in 10.0 mi Calm Calm - N/A   Clear
9:53 PM 48.0 °F 39.0 °F 71% 30.12 in 10.0 mi Calm Calm - N/A   Clear
10:53 PM 48.0 °F 39.0 °F 71% 30.12 in 10.0 mi Calm Calm - N/A   Clear
11:53 PM 45.0 °F 39.0 °F 80% 30.12 in 10.0 mi Calm Calm - N/A   Clear